Location: Newark
(34.6283°N, 36.0776°E)
Time: 16:37:57
(UTC+00:00)

SR - Visible Passes

Search period start: 18 October 2019 00:00
Search period end: 28 October 2019 00:00
Orbit: 575 x 881 km, 66.7° (Epoch: 17 October)

Date Brightness Start Highest point End Pass type
(mag) Time Alt. Az. Time Alt. Az. Time Alt. Az.
21 Oct ? 03:00:47 10° NNE 03:03:36 13° NE 03:06:25 10° ENE visible
23 Oct ? 03:02:13 10° N 03:06:51 23° NE 03:11:26 10° ESE visible
24 Oct ? 02:14:06 10° NNE 02:16:39 13° NE 02:19:10 10° ENE visible
25 Oct ? 03:04:21 10° NNW 03:09:55 40° ENE 03:15:21 10° SE visible
26 Oct ? 02:15:24 10° N 02:19:55 22° NE 02:24:22 10° E visible
27 Oct ? 01:27:27 10° NNE 01:29:41 12° NE 01:31:53 10° ENE visible
27 Oct ? 03:06:51 10° NNW 03:12:48 73° ENE 03:18:34 10° SSE visible
